パロマー彗星

P/2019 LM4 ( Palomar )

English version
Home page
Updated on July 8, 2020

---------------------------------------------------------------------

・ プロフィール

発見日 2019年6月4日
発見光度 19.0等
発見者 Q.-Z. Ye (Palomar Mountain), Z. T. F. Collaboration

・ 写真集

・ 軌道要素

Epoch 2019 June 6.0 TT = JDT 2458640.5
T 2019 June 18.22673 TT                                 Rudenko
q   2.3713324            (2000.0)            P               Q
n   0.07203890     Peri.   68.35922     -0.60627623     -0.55762262
a   5.7203771      Node    72.85854     +0.30626136     -0.82170074
e   0.5854587      Incl.   36.39540     +0.73391628     -0.11774934
P  13.7
From 200 observations 2019 June 4-2020 May 29, mean residual 0".5.

・ 光度変化

        m1 =  12.5 + 5 logΔ +  10.0 log r           [   ,328]  (              〜2020年 5月11日)
        m1 = -46   + 5 logΔ + 100   log r(t + 100)  [328,400]  (2020年 5月11日〜2020年 7月22日)
        m1 =  12.5 + 5 logΔ +  10.0 log r           [400,   ]  (2020年 7月22日〜              )

---------------------------------------------------------------------

軌道要素はM.P.E.C. 2020-L06に掲載されたものです。
光度グラフはComet for Windowsで作成したものです。

---------------------------------------------------------------------

Copyright(C) Seiichi Yoshida (comet@aerith.net). All rights reserved.